When you browse on this site, cookies collect data to enhance your experience and personalize the content and advertising you see.
Visit our Privacy Policy to learn more. By continuing to use the site, you agree to this use of cookies and data.
  • în România
  • Lista ţărilor
  • Pe 7 zile
  • Temperatura apei
  • Meteo pe hartă
  • Widget-uri
  • user-avatar
    Intrare

    Meteo pe oră la Barlinek

    Astăzi, 15 Octombrie, Marţi

    Timp Temperatura Precipitaţii Vânt Presiune Umiditate
    00:00 +14°C° 0 mm 3 m/s 754 mmHg 82%
    01:00 +14°C° 0 mm 3 m/s 754 mmHg 84%
    02:00 +14°C° 0 mm 3 m/s 753 mmHg 87%
    03:00 +13°C° 0 mm 3 m/s 752 mmHg 89%
    04:00 +13°C° 0 mm 3 m/s 752 mmHg 92%
    05:00 +13°C° 0 mm 3 m/s 752 mmHg 91%
    06:00 +13°C° 0 mm 3 m/s 752 mmHg 90%
    07:00 +13°C° 0 mm 3 m/s 751 mmHg 88%
    08:00 +14°C° 0 mm 3 m/s 751 mmHg 82%
    09:00 +17°C° 0 mm 3 m/s 751 mmHg 76%
    10:00 +18°C° 0 mm 3 m/s 750 mmHg 69%
    11:00 +19°C° 0 mm 3 m/s 750 mmHg 66%
    12:00 +20°C° 0 mm 3 m/s 749 mmHg 63%
    13:00 +20°C° 0 mm 3 m/s 749 mmHg 60%
    14:00 +20°C° 0 mm 2 m/s 749 mmHg 62%
    15:00 +20°C° 0 mm 2 m/s 748 mmHg 65%
    16:00 +21°C° 0 mm 1 m/s 748 mmHg 67%
    17:00 +19°C° 0 mm 1 m/s 748 mmHg 71%
    18:00 +18°C° 0 mm 1 m/s 748 mmHg 75%
    19:00 +16°C° 0 mm 1 m/s 748 mmHg 79%
    20:00 +15°C° 0 mm 1 m/s 748 mmHg 80%
    21:00 +15°C° 0 mm 1 m/s 747 mmHg 82%
    22:00 +15°C° 0 mm 1 m/s 747 mmHg 83%
    23:00 +15°C° 0 mm 1 m/s 747 mmHg 84%

    Mâine, 16 Octombrie, Miercuri

    Timp Temperatura Precipitaţii Vânt Presiune Umiditate
    00:00 +14°C° 0 mm 2 m/s 747 mmHg 84%
    01:00 +14°C° 0 mm 2 m/s 747 mmHg 85%
    02:00 +14°C° 0 mm 2 m/s 746 mmHg 87%
    03:00 +14°C° 0 mm 2 m/s 746 mmHg 88%
    04:00 +13°C° 0 mm 2 m/s 746 mmHg 90%
    05:00 +12°C° 0 mm 3 m/s 746 mmHg 91%
    06:00 +12°C° 0 mm 5 m/s 747 mmHg 91%
    07:00 +13°C° 0 mm 6 m/s 747 mmHg 92%
    08:00 +12°C° 0.1 mm 7 m/s 747 mmHg 88%
    09:00 +12°C° 0.1 mm 8 m/s 748 mmHg 85%
    10:00 +11°C° 0.1 mm 9 m/s 748 mmHg 81%
    11:00 +12°C° 0.1 mm 9 m/s 749 mmHg 78%
    12:00 +12°C° 0.1 mm 9 m/s 749 mmHg 75%
    13:00 +12°C° 0.1 mm 9 m/s 749 mmHg 72%
    14:00 +12°C° 0.3 mm 8 m/s 749 mmHg 73%
    15:00 +11°C° 0.3 mm 8 m/s 749 mmHg 75%
    16:00 +11°C° 0.3 mm 8 m/s 749 mmHg 76%
    17:00 +11°C° 1.8 mm 8 m/s 749 mmHg 79%
    18:00 +11°C° 1.8 mm 9 m/s 749 mmHg 82%
    19:00 +10°C° 1.8 mm 9 m/s 749 mmHg 85%
    20:00 +11°C° 0.4 mm 8 m/s 750 mmHg 84%
    21:00 +11°C° 0.4 mm 8 m/s 750 mmHg 82%
    22:00 +11°C° 0.4 mm 7 m/s 751 mmHg 81%
    23:00 +10°C° 0 mm 6 m/s 751 mmHg 83%

    Poimâine, 17 Octombrie, Joi

    Timp Temperatura Precipitaţii Vânt Presiune Umiditate
    00:00 +10°C° 0 mm 5 m/s 752 mmHg 86%
    01:00 +9°C° 0 mm 5 m/s 752 mmHg 88%
    02:00 +10°C° 0 mm 4 m/s 753 mmHg 90%
    03:00 +10°C° 0 mm 3 m/s 753 mmHg 92%
    04:00 +10°C° 0 mm 3 m/s 753 mmHg 93%
    05:00 +10°C° 0 mm 2 m/s 753 mmHg 92%
    06:00 +10°C° 0 mm 2 m/s 753 mmHg 90%
    07:00 +12°C° 0 mm 2 m/s 753 mmHg 89%
    08:00 +12°C° 0 mm 3 m/s 754 mmHg 84%
    09:00 +13°C° 0 mm 3 m/s 754 mmHg 79%
    10:00 +14°C° 0 mm 3 m/s 754 mmHg 74%
    11:00 +16°C° 0 mm 3 m/s 754 mmHg 72%
    12:00 +16°C° 0 mm 3 m/s 754 mmHg 69%
    13:00 +17°C° 0 mm 3 m/s 754 mmHg 66%
    14:00 +17°C° 0 mm 3 m/s 754 mmHg 67%
    15:00 +16°C° 0 mm 3 m/s 754 mmHg 69%
    16:00 +16°C° 0 mm 2 m/s 754 mmHg 70%
    17:00 +15°C° 0 mm 2 m/s 754 mmHg 71%
    18:00 +15°C° 0 mm 2 m/s 755 mmHg 73%
    19:00 +14°C° 0 mm 2 m/s 755 mmHg 74%
    20:00 +13°C° 0 mm 2 m/s 755 mmHg 77%
    21:00 +13°C° 0 mm 2 m/s 755 mmHg 80%
    22:00 +12°C° 0 mm 2 m/s 755 mmHg 83%
    23:00 +12°C° 0 mm 2 m/s 755 mmHg 85%

    18 Octombrie, Vineri

    Timp Temperatura Precipitaţii Vânt Presiune Umiditate
    00:00 +12°C° 0 mm 2 m/s 755 mmHg 87%
    01:00 +10°C° 0 mm 2 m/s 755 mmHg 89%
    02:00 +10°C° 0 mm 2 m/s 756 mmHg 90%
    03:00 +10°C° 0 mm 2 m/s 756 mmHg 91%
    04:00 +9°C° 0 mm 2 m/s 756 mmHg 92%
    05:00 +9°C° 0 mm 2 m/s 756 mmHg 93%
    06:00 +9°C° 0 mm 2 m/s 756 mmHg 94%
    07:00 +9°C° 0 mm 2 m/s 756 mmHg 95%
    08:00 +10°C° 0 mm 2 m/s 756 mmHg 88%
    09:00 +13°C° 0 mm 2 m/s 756 mmHg 82%
    10:00 +15°C° 0 mm 2 m/s 756 mmHg 75%
    11:00 +16°C° 0 mm 2 m/s 756 mmHg 70%
    12:00 +17°C° 0 mm 3 m/s 756 mmHg 66%
    13:00 +18°C° 0 mm 3 m/s 756 mmHg 61%
    14:00 +18°C° 0 mm 3 m/s 756 mmHg 63%
    15:00 +17°C° 0 mm 2 m/s 755 mmHg 66%
    16:00 +17°C° 0 mm 2 m/s 755 mmHg 69%
    17:00 +16°C° 0 mm 2 m/s 755 mmHg 71%
    18:00 +16°C° 0 mm 3 m/s 755 mmHg 73%
    19:00 +14°C° 0 mm 3 m/s 755 mmHg 75%
    20:00 +14°C° 0 mm 3 m/s 755 mmHg 76%
    21:00 +13°C° 0 mm 3 m/s 755 mmHg 78%
    22:00 +14°C° 0 mm 2 m/s 755 mmHg 79%
    23:00 +14°C° 0 mm 2 m/s 755 mmHg 80%

    19 Octombrie, Sâmbătă

    Timp Temperatura Precipitaţii Vânt Presiune Umiditate
    00:00 +13°C° 0 mm 2 m/s 755 mmHg 80%
    01:00 +13°C° 0 mm 2 m/s 755 mmHg 81%
    02:00 +13°C° 0.1 mm 1 m/s 755 mmHg 81%
    03:00 +13°C° 0.1 mm 1 m/s 755 mmHg 81%
    04:00 +13°C° 0.1 mm 1 m/s 755 mmHg 82%
    05:00 +13°C° 0.2 mm 1 m/s 755 mmHg 83%
    06:00 +13°C° 0.2 mm 1 m/s 755 mmHg 84%
    07:00 +13°C° 0.2 mm 1 m/s 755 mmHg 85%
    08:00 +14°C° 0 mm 1 m/s 755 mmHg 83%
    09:00 +15°C° 0 mm 1 m/s 755 mmHg 80%
    10:00 +16°C° 0 mm 2 m/s 755 mmHg 78%
    11:00 +18°C° 0 mm 1 m/s 755 mmHg 73%
    12:00 +19°C° 0 mm 1 m/s 755 mmHg 69%
    13:00 +20°C° 0 mm 1 m/s 755 mmHg 64%
    14:00 +19°C° 0 mm 1 m/s 754 mmHg 66%
    15:00 +19°C° 0 mm 1 m/s 754 mmHg 68%
    16:00 +18°C° 0 mm 1 m/s 754 mmHg 71%
    17:00 +18°C° 0 mm 1 m/s 753 mmHg 74%
    18:00 +16°C° 0 mm 2 m/s 753 mmHg 77%
    19:00 +15°C° 0 mm 2 m/s 753 mmHg 80%
    20:00 +14°C° 0 mm 2 m/s 753 mmHg 82%
    21:00 +13°C° 0 mm 3 m/s 753 mmHg 85%
    22:00 +13°C° 0 mm 3 m/s 752 mmHg 87%
    23:00 +13°C° 0 mm 3 m/s 752 mmHg 88%

    20 Octombrie, Duminică

    Timp Temperatura Precipitaţii Vânt Presiune Umiditate
    00:00 +12°C° 0 mm 3 m/s 751 mmHg 89%
    01:00 +12°C° 0 mm 4 m/s 751 mmHg 90%
    02:00 +12°C° 0 mm 4 m/s 750 mmHg 91%
    03:00 +11°C° 0 mm 3 m/s 750 mmHg 92%
    04:00 +11°C° 0 mm 3 m/s 749 mmHg 93%
    05:00 +11°C° 0 mm 3 m/s 749 mmHg 94%
    06:00 +11°C° 0 mm 3 m/s 749 mmHg 94%
    07:00 +10°C° 0 mm 3 m/s 748 mmHg 95%
    08:00 +12°C° 0 mm 3 m/s 748 mmHg 89%
    09:00 +13°C° 0 mm 3 m/s 748 mmHg 83%
    10:00 +16°C° 0 mm 3 m/s 748 mmHg 76%
    11:00 +17°C° 0 mm 3 m/s 748 mmHg 73%
    12:00 +18°C° 0 mm 3 m/s 748 mmHg 69%
    13:00 +18°C° 0 mm 3 m/s 748 mmHg 65%
    14:00 +18°C° 0 mm 3 m/s 749 mmHg 68%
    15:00 +17°C° 0 mm 3 m/s 749 mmHg 72%
    16:00 +17°C° 0 mm 3 m/s 749 mmHg 75%
    17:00 +16°C° 0.2 mm 3 m/s 750 mmHg 79%
    18:00 +14°C° 0.2 mm 3 m/s 750 mmHg 84%
    19:00 +13°C° 0.2 mm 3 m/s 751 mmHg 88%
    20:00 +12°C° 0 mm 3 m/s 751 mmHg 89%
    21:00 +12°C° 0 mm 3 m/s 752 mmHg 90%
    22:00 +12°C° 0 mm 3 m/s 752 mmHg 91%
    23:00 +11°C° 0 mm 3 m/s 753 mmHg 92%
    Arată mai mult